Weather reports worldwide

Advertisment
Gibilmanna, Italy (16442): temperature & dewpoint: 13.03.2019 10:00:00 - 19.03.2019 10:00:00 (CET)
Date & Time tt [°C] td [°C]
19.03.2019 10:00:00 - -
19.03.2019 09:00:00 7,2 5,5
19.03.2019 08:00:00 6,8 5,6
19.03.2019 07:00:00 6,3 4,6
19.03.2019 06:00:00 6,3 3,6
19.03.2019 05:00:00 7,2 2,2
19.03.2019 04:00:00 7,9 2,1
19.03.2019 03:00:00 8,1 -1,0
19.03.2019 02:00:00 7,9 -2,3
19.03.2019 01:00:00 8,5 -0,6
19.03.2019 00:00:00 9,1 -4,3
18.03.2019 23:00:00 9,3 -4,8
18.03.2019 22:00:00 9,4 -5,1
18.03.2019 21:00:00 9,8 -5,5
18.03.2019 20:00:00 10,2 -5,5
18.03.2019 19:00:00 12,8 1,1
18.03.2019 18:00:00 13,5 1,1
18.03.2019 17:00:00 13,3 0,9
18.03.2019 16:00:00 15,4 2,1
18.03.2019 15:00:00 18,7 4,7
18.03.2019 14:00:00 18,4 2,2
18.03.2019 13:00:00 17,7 3,5
18.03.2019 12:00:00 17,0 2,1
18.03.2019 11:00:00 16,0 2,7
18.03.2019 10:00:00 14,2 0,0
18.03.2019 09:00:00 13,6 -1,7
18.03.2019 08:00:00 11,0 -7,9
18.03.2019 07:00:00 10,3 -10,1
18.03.2019 06:00:00 10,0 -10,9
18.03.2019 05:00:00 10,1 -12,0
18.03.2019 04:00:00 9,8 -10,5
18.03.2019 03:00:00 9,5 -9,2
18.03.2019 02:00:00 9,0 -7,0
18.03.2019 01:00:00 9,2 -5,6
18.03.2019 00:00:00 9,9 -3,9
17.03.2019 23:00:00 8,8 2,3
17.03.2019 22:00:00 8,4 1,5
17.03.2019 21:00:00 9,3 4,3
17.03.2019 20:00:00 10,2 4,9
17.03.2019 19:00:00 11,0 5,5
17.03.2019 18:00:00 11,8 7,3
17.03.2019 17:00:00 12,9 8,1
17.03.2019 16:00:00 14,5 9,7
17.03.2019 15:00:00 14,6 9,8
17.03.2019 14:00:00 14,5 10,1
17.03.2019 13:00:00 14,6 10,2
17.03.2019 12:00:00 15,0 8,2
17.03.2019 11:00:00 13,9 8,3
17.03.2019 10:00:00 13,3 7,2
17.03.2019 09:00:00 11,8 2,7
17.03.2019 08:00:00 9,8 0,0
17.03.2019 07:00:00 8,2 0,6
17.03.2019 06:00:00 8,0 1,5
17.03.2019 05:00:00 8,4 3,4
17.03.2019 04:00:00 8,3 4,6
17.03.2019 03:00:00 8,6 5,7
17.03.2019 02:00:00 8,8 5,5
17.03.2019 01:00:00 8,7 6,5
17.03.2019 00:00:00 8,6 6,7
16.03.2019 23:00:00 8,9 6,7
16.03.2019 22:00:00 8,8 6,4
16.03.2019 21:00:00 8,5 5,9
16.03.2019 20:00:00 7,9 5,2
16.03.2019 19:00:00 7,7 5,6
16.03.2019 18:00:00 8,9 6,1
16.03.2019 17:00:00 10,6 6,3
16.03.2019 16:00:00 11,6 5,6
16.03.2019 15:00:00 12,9 6,6
16.03.2019 14:00:00 13,6 8,8
16.03.2019 13:00:00 14,8 9,3
16.03.2019 12:00:00 15,0 9,3
16.03.2019 11:00:00 15,1 9,0
16.03.2019 10:00:00 13,9 5,7
16.03.2019 09:00:00 12,2 2,0
16.03.2019 08:00:00 10,6 0,8
16.03.2019 07:00:00 8,6 0,5
16.03.2019 06:00:00 - -
16.03.2019 05:00:00 - -
16.03.2019 04:00:00 6,0 3,3
16.03.2019 03:00:00 - -
16.03.2019 02:00:00 5,0 4,3
16.03.2019 01:00:00 4,9 4,3
16.03.2019 00:00:00 4,8 4,4
15.03.2019 23:00:00 4,9 4,6
15.03.2019 22:00:00 5,0 4,9
15.03.2019 21:00:00 4,8 4,7
15.03.2019 20:00:00 4,9 4,8
15.03.2019 19:00:00 5,8 5,8
15.03.2019 18:00:00 6,3 6,3
15.03.2019 17:00:00 6,5 6,5
15.03.2019 16:00:00 6,9 6,9
15.03.2019 15:00:00 6,8 6,8
15.03.2019 14:00:00 7,3 7,3
15.03.2019 13:00:00 6,5 6,5
15.03.2019 12:00:00 6,6 6,6
15.03.2019 11:00:00 6,0 6,0
15.03.2019 10:00:00 5,7 5,7
15.03.2019 09:00:00 5,2 5,1
15.03.2019 08:00:00 4,9 4,6
15.03.2019 07:00:00 4,2 3,8
15.03.2019 06:00:00 4,1 3,5
15.03.2019 05:00:00 4,0 3,3
15.03.2019 04:00:00 3,9 2,9
15.03.2019 03:00:00 3,6 2,2
15.03.2019 02:00:00 3,7 2,5
15.03.2019 01:00:00 3,7 2,7
15.03.2019 00:00:00 4,4 3,4
14.03.2019 23:00:00 4,6 3,2
14.03.2019 22:00:00 3,7 1,9
14.03.2019 21:00:00 4,0 2,6
14.03.2019 20:00:00 4,2 3,0
14.03.2019 19:00:00 4,5 3,5
14.03.2019 18:00:00 4,4 3,5
14.03.2019 17:00:00 4,3 3,7
14.03.2019 16:00:00 4,6 4,2
14.03.2019 15:00:00 4,7 4,3
14.03.2019 14:00:00 4,6 4,2
14.03.2019 13:00:00 4,5 4,2
14.03.2019 12:00:00 4,6 4,2
14.03.2019 11:00:00 3,9 3,0
14.03.2019 10:00:00 4,3 3,7
14.03.2019 09:00:00 - -
14.03.2019 08:00:00 2,7 1,5
14.03.2019 07:00:00 3,3 2,3
14.03.2019 06:00:00 3,9 2,9
14.03.2019 05:00:00 4,0 2,5
14.03.2019 04:00:00 4,6 2,9
14.03.2019 03:00:00 4,5 2,3
14.03.2019 02:00:00 4,4 1,7
14.03.2019 01:00:00 4,4 1,6
14.03.2019 00:00:00 5,7 0,6
13.03.2019 23:00:00 5,3 -1,3
13.03.2019 22:00:00 4,0 0,6
13.03.2019 21:00:00 4,6 0,7
13.03.2019 20:00:00 5,5 0,4
13.03.2019 19:00:00 6,2 0,2
13.03.2019 18:00:00 6,8 1,0
13.03.2019 17:00:00 7,8 1,3
13.03.2019 16:00:00 8,6 1,2
13.03.2019 15:00:00 - -
13.03.2019 14:00:00 - -
13.03.2019 13:00:00 8,5 1,8
13.03.2019 12:00:00 - -
13.03.2019 11:00:00 7,4 0,7
13.03.2019 10:00:00 6,6 1,5

tt = temperature
td = dewpoint

Next stations